OPS 4682 DEB, 38398

Orbit data source: Space-Track

OPS 4682 DEB, 38398 is space debris in LEO originally from a launch on Sat, 03 Apr 1965 UTC launched from the Air Force Western Test Range (AFWTR). Debris objects in space refer to the collection of defunct objects orbiting the Earth. Examples of debris include non-operational satellites, rocket bodies, and fragments generated from explosions, collisions, or faulty payload assembly.

Loading next visibility...
Identifier
38398, 1965-027DB
Orbit
LEO
Country
Flag of USUS
Related business
Manufacturer
Unknown
Mission
Spacecraft
Bus & Motor
Unknown
Mass
Unknown
Launch date (UTC)
1965-04-03 (61 years ago)
Launch vehicle
Unknown
Launch site
Air Force Western Test Range (AFWTR)
Object type
Payload
Rocket body
Debris
Shape & HBR
Unknown shape, 0.1 m
Radar Cross Section
Small (<0.1 m²)

Expand to show TLE details & history
Last TLE update: 5 days ago

TLE from 5 days ago
0 OPS 4682 DEB
1 38398U 65027DB  25299.46711466 -.00000180  00000-0 -64831-3 0  9999
2 38398  90.2641  12.2218 0020100  15.0617 345.1098 12.97023819632951
Epoch: 2025-10-26T11:12Z
TLE epoch observation values (Epoch: 2025-10-26T11:12:38.706Z)
Latitude
-0.00001°
Longitude
168.97763°
Altitude
1,261.784 km
Speed
7.231 km/s
True Right ascension
00h 48m 53s
True Declination
0° 00' 00"
Sunlit
Object was in full shadow at epoch
Visualization orbit readout
Latitude
Unknown
Longitude
Unknown
Altitude
Unknown
Speed
Unknown
Apparent Right ascension
Unknown
Apparent Declination
Unknown
Sunlit
N/A
Visualization observer readout
Local Sidereal Time
07:35:32
Azimuth
Unknown
Elevation
Unknown
Doppler factor
Unknown
Orbital elements
Apogee altitude
1,286.276 km
Perigee altitude
1,255.527 km
Semi-major axis
7,649.038 km
Eccentricity
0.00201
Inclination
90.2641°
RAAN
12.2218°
Arg. of periapsis
15.0617°
True anomaly
345.05047°
Mean anomaly
345.1098°
Eccentric anomaly
345.08015°
Mean motion
3.24439 °/min
Orbital period
110.96 mins
BSTAR
-0.00064831
Loading maneuver chart data...
Computing Atmospheric mass density...
Loading historical data...
Loading historical data...
Loading historical data...
Loading historical data...
Loading historical data...
Loading historical data...
Loading historical data...

Documentation

Showing up to 5 results
|